Regional Weather Roundup
Issued by NWS Newport/Morehead, NC

Current Version | Previous Version | Text Only | Print | Product List | Glossary On
Versions: 1 2 3 4 5 6 7 8 9 10 11 12 13 14 15 16 17 18 19 20 21 22 23 24 25 26 27 28 29 30 31 32 33 34 35 36 37 38 39 40 41 42 43 44 45 46 47 48 49 50
000 ASUS42 KMHX 240325 RWRMHX WEATHER ROUNDUP FOR EASTERN NORTH CAROLINA NATIONAL WEATHER SERVICE NEWPORT/MOREHEAD CITY NC 1100 PM EDT MON APR 23 2018 NOTE: "FAIR" INDICATES FEW OR NO CLOUDS BELOW 12,000 FEET WITH NO SIGNIFICANT WEATHER AND/OR OBSTRUCTIONS TO VISIBILITY NCZ015>017-031-032-045>047-102-103-240400- NORTH COAST CITY SKY/WX TMP DP RH WIND PRES REMARKS EDENTON FAIR 61 53 76 E9 30.29F ELIZABETH CITY CLOUDY 58 51 78 E10 30.31F KITTY HAWK FAIR 55 49 79 E6 30.30F MANTEO FAIR 59 47 63 SE12 30.30F $$ NCZ045>047-081-094-103-104-240400- CENTRAL COAST CITY SKY/WX TMP DP RH WIND PRES REMARKS FRISCO FAIR 65 53 65 SE18 30.28F $$ NCZ095-097-098-100-101-240400- SOUTHERN COAST CITY SKY/WX TMP DP RH WIND PRES REMARKS BEAUFORT LGT RAIN 65 55 70 E17G26 30.21F CEDAR ISLAND NOT AVBL JACKSONVILLE LGT RAIN 64 56 75 E22G30 30.17F PINEY ISLAND NOT AVBL WILMINGTON MOCLDY 65 58 78 E13G24 30.14F $$ NCZ011>013-027>030-043-044-078>080-089-090>093-098-240400- COASTAL PLAIN CITY SKY/WX TMP DP RH WIND PRES REMARKS AHOSKIE CLOUDY 57 45 64 E5 30.29S CLINTON FAIR 61 56 85 E8 30.16S ELIZABETHTOWN CLOUDY 62 57 82 MISG 30.13S GOLDSBORO MOCLDY 61 51 70 E15 30.17F GREENVILLE FAIR 61 46 59 E10G16 30.24F HAVELOCK CLOUDY 66 55 67 SE20G25 30.22F KENANSVILLE CLOUDY 59 55 88 E6 30.18S KINSTON MOCLDY 63 50 64 E12 30.20F NEW BERN FAIR 63 53 70 E13 30.22F RICHLANDS LGT RAIN 62 56 80 E13G21 30.18F ROCKY MOUNT CLOUDY 61 45 55 VRB7 30.23F WASHINGTON CLOUDY 61 47 61 E12 30.24F WHITEVILLE LGT RAIN 63 60 90 E10G17 30.10F $$ AMZ130-135-150-152-154-156-158-170-250-252-270-ANZ085-086-088-633-658-670-240400- MARINE OBSERVATIONS STATION/POSITION TIME TEMP WIND PRES WAVE SWELL AIR SEA DIR/SP/G HT/PER HT/PER (UTC) (F) (DEG/KT/KT) (MB) (FT/S) (FT/S) CHESAPEAKE LIGHT NOT AVBL 64 E VA BEACH 0250 53 50 70/ 10/ 10 1027.8 4/ 7 3/ 7 DUCK 0300 55 54 80/ 12/ 14 1026.0 2 E DUCK 0300 53 N/A 4/ 6 OREGON INLET 0300 57 57 80/ 8/ 11 1026.0 13E OREGON INLT 0248 52 N/A 5/ 7 5/ 7 HATTERAS CG 0300 65 62 120/ 12/ 18 1024.8 DIAMOND BUOY 0310 68 73 120/ 23/ 27 1025.2 CAPE LOOKOUT 0300 110/ 20/ 23 1023.2 BEAUFORT LAB 0300 65 63 120/ 16/ 20 1023.2 30 SE NEW RVR IN 0308 66 65 140/ 21/ 27 1021.2 30 SE NEW RVR IN 0300 65 N/A 10/ 8 2/11 27 SE WRIGHTSVLE 0308 67 65 130/ 29/ 41 1020.6 5 SE WRIGHTSVLE 0308 64 61 130/ 19/ 27 1018.0 225 S CAPE HAT 0310 70 72 120/ 23/ 27 1022.3 41 SE CHARLESTON 0310 67 120/ 31/ 41 1014.8 $$

USA.gov is the U.S. government's official web portal to all federal, state and local government web resources and services.